708  
ASUS42 KCHS 140826  
RWRCHS  
 
REGIONAL WEATHER ROUNDUP  
NATIONAL WEATHER SERVICE CHARLESTON SC  
400 AM EDT WED APR 14 2021  
 
NOTE: "FAIR" INDICATES FEW OR NO CLOUDS BELOW 12,000 FEET WITH NO  
SIGNIFICANT WEATHER AND/OR S TO VISIBILITY
.  
 
NOT ALL STATIONS ARE QUALITY CONTROLLED. USE DATA WITH CAUTION,  
ESPECIALLY DEWPOINT OBSERVATIONS.  
 
SCZ027-030-031-034>040-042>050-140900-   
..SOUTHEAST SOUTH CAROLINA
 
 
 
CITY SKY/WX TMP DP RH WIND PRES REMARKS
 
N CHARLESTON CLEAR 60 57 89 CALM 30.08F  
WATERFRONT PRK N/A 65 61 87 CALM 29.94F  
MOUNT PLEASANT PTSUNNY 57 57 100 CALM 30.09S  
JOHNS ISLAND N/A 57 57 100 CALM 30.09S  
PINOPOLIS N/A 61 57 88 CALM 30.00S  
MONCKS CORNER FAIR 54 54 100 CALM 30.09S  
SUMMERVILLE CLOUDY 55 55 100 CALM 30.09S FOG  
BEAUFORT MCAS CLEAR 59 56 89 SW3 30.09S  
BEAUFORT ARPT FAIR 59 57 94 CALM 30.09R  
HILTON HEAD IS CLEAR 61 59 94 CALM 30.10R  
WALTERBORO SUNNY 54 52 94 CALM 30.09F  
ALLENDALE FAIR 59 55 88 CALM 30.08R  
   
..SOUTHERN MIDLANDS AND PEE DEE
 
 
 
CITY SKY/WX TMP DP RH WIND PRES REMARKS
 
GEORGETOWN FAIR 52 52 100 CALM 30.11S  
KINGSTREE PTSUNNY 52 50 93 CALM 30.09F  
ORANGEBURG CLEAR 56 54 93 CALM 30.08F  
BARNWELL CLOUDY 59 54 82 CALM 30.08S  
AIKEN FAIR 57 53 84 S7 30.08S  
MANNING FAIR 54 52 94 CALM 30.10S  
COLUMBIA CLEAR 58 52 80 E3 30.06F  
SUMTER CLEAR 55 53 91 CALM 30.08S  
FLORENCE CLEAR 56 51 84 CALM 30.09S  
MYRTLE BEACH CLEAR 61 61 100 CALM 30.10S  
N MYRTLE BEACH CLEAR 60 57 89 SW3 30.10R  
 

 
 
GAZ063-065-086>088-099>101-113>116-118-119-134>141-150-140900-   
..SOUTHEAST GEORGIA
 
 
 
CITY SKY/WX TMP DP RH WIND PRES REMARKS
 
SAVANNAH ARPT CLEAR 59 56 89 CALM 30.09S  
HUNTER AAF CLEAR 60 56 89 CALM 30.06S  
FORT STEWART PTCLDY 56 54 93 CALM 30.07S  
STATESBORO PTCLDY 61 53 75 S5 30.08S  
SYLVANIA SUNNY 58 54 86 S3 30.09R  
CLAXTON FAIR 57 55 91 CALM 30.09S  
MILLEN FAIR 57 52 84 CALM 30.08R  
METTER FAIR 57 56 95 S3 30.08S  
REIDSVILLE FAIR 58 54 86 CALM 30.08S  
   
..CSRA, CENTRAL AND FAR SOUTHEAST GEORGIA
 
 
 
CITY SKY/WX TMP DP RH WIND PRES REMARKS
 
THOMSON CLEAR 60 54 78 S5 30.06R  
AUGUSTA-BUSH CLEAR 55 53 93 CALM 30.06S  
AUGUSTA-DANIEL CLEAR 62 54 74 SE8 30.07S  
SWAINSBORO FAIR 61 45 55 CALM 30.08S  
VIDALIA PTCLDY 63 54 72 S7 30.08S  
EASTMAN FAIR 61 55 80 SE3 30.06F  
HAZLEHURST FAIR 64 56 76 S5 30.06F  
ALMA MOCLDY 62 56 80 S7 30.08F  
WAYCROSS MOCLDY 62 61 96 SW3 30.09F  
JESUP FAIR 55 54 94 CALM 30.10S  
BAXLEY FAIR 59 55 88 S3 30.08S  
BRUNSWICK MOCLDY 56 56 97 W5 30.10R  
SAINT SIMONS MOCLDY 65 63 93 SW3 30.09R  
 

 
 
SCZ027-028-034-036>038-045-046-048>050-GAZ119-141-140900-   
..LAKE AND SUPPLEMENTAL COASTAL OBSERVATIONS
 
 
 
STATION/POSITION TIME TEMP WIND PRES WAVE SWELL
 
AIR SEA DIR/SP/G HT/PER HT/PER/DIR  
(UTC) (F) (DEG/KT/KT) (MB) (FT/S) (FT/S/D)  
WINYAH BAY 0745 58 CALM 1019.0S  
LAKE MURRAY 0820 65 100/ 3/ 3 N/A  
CHRLSTN HARBOR 0748 64 67 190/ 2/ 4 1019.0F  
ACE BASIN NERRS 0745 60 CALM 1019.0S  
FORT PULASKI 0748 64 66 180/ 2/ 3 1019.3F  
SAPELO ISLAND 0800 62 200/ 4 1019.0  
 

 
 
ANZ835-935-AMZ111-154-330-350-352-354-370-450-454-472-140900-   
..C-MAN AND BUOY OBSERVATIONS
 
 
 
STATION/POSITION TIME TEMP WIND PRES WAVE SWELL
 
AIR SEA DIR/SP/G HT/PER HT/PER/DIR  
(UTC) (F) (DEG/KT/KT) (MB) (FT/S) (FT/S/D)  
BUOY 41004 NOT AVBL  
BUOY 41008 0750 66 66 190/ 4/ 4 1018.7F 2/ 6 2/ 90/ 6  
FOLLY BEACH CMAN 0800 65 230/ 4/ 4 1019.2F  
CAPERS NEARSHORE 0808 65 65 CALM / 4 1018.5  
FRIPP NEARSHORE 0808 66 67 220/ 4/ 6 1018.1F  
 
 
STATION/POSITION TIME TEMP WIND PRES WAVE SWELL
 
AIR SEA DIR/SP/G HT/PER HT/PER/DIR  
(UTC) (F) (DEG/KT/KT) (MB) (FT/S) (FT/S/D)  
5E ST. MARYS GA 0800 65 66 N/A 3/ 8  
FRYING PAN BUOY 0810 66 80/ 2/ 4 1018.9  
BUOY 41025 NOT AVBL  
CAPE LOOKOUT NC 0800 57 20/ 7/ 7 1020.1R  
BUOY 41002 NOT AVBL  
BUOY 41010 0800 71 70/ 10/ 14 1019.1  
ST AUGUSTINE FL 0800 65 67 220/ 4/ 4 1019.4R  
 

 
 
 
CLICK HERE TO GO TO PREVIOUS BULLETINS.

The Nexlab SC Page
The Nexlab GA Page Main Text Page